| time (UTC) | temp F | wind direction | speed MPH | gust MPH | rain 1hr in | rain 24hr in | rain mn in | humidity % | barometer mb |
| 20260906033156 | 77 | 166 | 0.0 | 0.0 | 0.00 | 0.27 | 0.27 | 93 | 1017.0 |
| 20260906032652 | 77 | 169 | 0.0 | 0.0 | 0.00 | 0.27 | 0.27 | 93 | 1016.7 |
| 20260906032146 | 77 | 170 | 0.0 | 0.0 | 0.00 | 0.27 | 0.27 | 93 | 1016.9 |
| 20260906031642 | 77 | 170 | 0.0 | 0.0 | 0.00 | 0.27 | 0.27 | 93 | 1016.8 |
| 20260906031137 | 77 | 169 | 0.0 | 0.0 | 0.00 | 0.27 | 0.27 | 93 | 1017.0 |
| 20260906030636 | 77 | 170 | 0.0 | 0.0 | 0.00 | 0.27 | 0.27 | 92 | 1017.1 |
| 20260906030132 | 77 | 169 | 0.0 | 0.0 | 0.00 | 0.27 | 0.27 | 93 | 1017.0 |
| 20260906025631 | 77 | 169 | 0.0 | 0.0 | 0.00 | 0.27 | 0.27 | 92 | 1016.7 |
| 20260906025130 | 77 | 170 | 0.0 | 0.0 | 0.00 | 0.27 | 0.27 | 93 | 1017.1 |
| 20260906024625 | 77 | 168 | 0.0 | 0.0 | 0.00 | 0.27 | 0.27 | 92 | 1016.9 |
| 20260906024119 | 78 | 168 | 0.0 | 0.0 | 0.00 | 0.27 | 0.27 | 92 | 1016.7 |
| 20260906023615 | 78 | 163 | 0.0 | 0.0 | 0.00 | 0.27 | 0.27 | 92 | 1016.8 |
| 20260906023109 | 77 | 163 | 0.0 | 0.0 | 0.00 | 0.27 | 0.27 | 92 | 1016.5 |
| 20260906022605 | 77 | 163 | 0.0 | 0.0 | 0.00 | 0.27 | 0.27 | 92 | 1016.6 |
| 20260906022100 | 78 | 160 | 0.0 | 0.0 | 0.00 | 0.27 | 0.27 | 93 | 1016.8 |
| 20260906021556 | 78 | 156 | 0.0 | 0.0 | 0.00 | 0.27 | 0.27 | 93 | 1016.4 |
| 20260906021055 | 78 | 155 | 0.0 | 0.0 | 0.00 | 0.27 | 0.27 | 93 | 1016.8 |
| 20260906020555 | 78 | 165 | 0.0 | 0.0 | 0.00 | 0.27 | 0.27 | 93 | 1016.7 |
| 20260906020054 | 78 | 178 | 0.0 | 0.0 | 0.00 | 0.27 | 0.27 | 93 | 1016.7 |
| 20260906015553 | 77 | 161 | 0.0 | 0.0 | 0.00 | 0.27 | 0.27 | 93 | 1016.6 |
| 20260906015048 | 77 | 163 | 0.0 | 0.0 | 0.00 | 0.27 | 0.27 | 93 | 1016.5 |
| 20260906014548 | 77 | 170 | 0.0 | 0.0 | 0.00 | 0.27 | 0.27 | 93 | 1016.4 |
| 20260906014044 | 78 | 166 | 0.0 | 0.0 | 0.00 | 0.27 | 0.27 | 93 | 1016.4 |
| 20260906013539 | 78 | 161 | 0.0 | 0.0 | 0.00 | 0.27 | 0.27 | 93 | 1016.2 |
| 20260906013034 | 78 | 166 | 0.0 | 0.0 | 0.00 | 0.27 | 0.27 | 93 | 1016.3 |
| 20260906012529 | 78 | 155 | 0.0 | 0.0 | 0.00 | 0.27 | 0.27 | 93 | 1016.3 |
| 20260906012029 | 78 | 155 | 0.0 | 0.0 | 0.00 | 0.27 | 0.27 | 93 | 1016.3 |
| 20260906011525 | 78 | 157 | 0.0 | 0.0 | 0.00 | 0.27 | 0.27 | 93 | 1016.3 |
| 20260906011025 | 78 | 149 | 0.0 | 0.0 | 0.00 | 0.27 | 0.27 | 93 | 1016.2 |
| 20260906010520 | 78 | 157 | 0.0 | 0.0 | 0.00 | 0.27 | 0.27 | 93 | 1016.1 |
| 20260906010017 | 78 | 157 | 0.0 | 0.0 | 0.00 | 0.27 | 0.27 | 93 | 1016.1 |
| 20260906005515 | 78 | 164 | 0.0 | 0.0 | 0.00 | 0.27 | 0.27 | 93 | 1016.0 |
| 20260906005014 | 78 | 155 | 0.0 | 0.0 | 0.00 | 0.27 | 0.27 | 93 | 1015.7 |
| 20260906004509 | 78 | 155 | 0.0 | 0.0 | 0.00 | 0.27 | 0.27 | 92 | 1015.8 |
| 20260906004004 | 78 | 164 | 0.0 | 0.0 | 0.00 | 0.27 | 0.27 | 92 | 1015.5 |
| 20260906003459 | 78 | 164 | 0.0 | 0.0 | 0.00 | 0.27 | 0.27 | 92 | 1015.4 |
| 20260906002954 | 78 | 163 | 0.0 | 0.0 | 0.00 | 0.27 | 0.27 | 92 | 1015.4 |
| 20260906002449 | 78 | 163 | 0.0 | 0.0 | 0.00 | 0.27 | 0.27 | 92 | 1015.4 |
| 20260906001944 | 78 | 164 | 0.0 | 0.0 | 0.00 | 0.27 | 0.27 | 92 | 1015.1 |
| 20260906001440 | 78 | 164 | 0.0 | 0.0 | 0.00 | 0.27 | 0.27 | 92 | 1015.5 |
| 20260906000934 | 78 | 164 | 0.0 | 1.0 | 0.00 | 0.27 | 0.27 | 92 | 1015.4 |
| 20260906000433 | 78 | 166 | 0.0 | 0.0 | 0.00 | 0.27 | 0.27 | 92 | 1015.4 |
| 20260905235924 | 78 | 160 | 0.0 | 0.0 | 0.00 | 0.27 | 0.27 | 92 | 1015.7 |
| 20260905235419 | 79 | 166 | 0.0 | 0.0 | 0.00 | 0.27 | 0.27 | 92 | 1015.6 |
| 20260905234914 | 79 | 163 | 0.0 | 0.0 | 0.00 | 0.27 | 0.27 | 92 | 1015.5 |
| 20260905234409 | 79 | 158 | 0.0 | 0.0 | 0.00 | 0.27 | 0.27 | 91 | 1015.7 |
| 20260905233904 | 79 | 162 | 0.0 | 0.0 | 0.00 | 0.27 | 0.27 | 91 | 1016.0 |
| 20260905233359 | 79 | 161 | 0.0 | 0.0 | 0.00 | 0.27 | 0.27 | 91 | 1016.0 |
| 20260905232858 | 79 | 162 | 0.0 | 0.0 | 0.00 | 0.27 | 0.27 | 91 | 1016.0 |
| 20260905232354 | 80 | 163 | 0.0 | 0.0 | 0.00 | 0.27 | 0.27 | 91 | 1016.1 |
| 20260905231849 | 80 | 145 | 0.0 | 0.0 | 0.00 | 0.27 | 0.27 | 91 | 1016.1 |
| 20260905231344 | 80 | 145 | 0.0 | 0.0 | 0.00 | 0.27 | 0.27 | 91 | 1016.3 |
| 20260905230841 | 80 | 145 | 0.0 | 0.0 | 0.00 | 0.27 | 0.27 | 91 | 1016.1 |
| 20260905230339 | 80 | 146 | 0.0 | 0.0 | 0.00 | 0.27 | 0.27 | 91 | 1016.0 |
| 20260905225838 | 80 | 146 | 0.0 | 0.0 | 0.00 | 0.27 | 0.27 | 91 | 1016.0 |
| 20260905225333 | 80 | 147 | 0.0 | 0.0 | 0.00 | 0.27 | 0.27 | 92 | 1015.9 |
| 20260905224828 | 80 | 153 | 0.0 | 0.0 | 0.00 | 0.27 | 0.27 | 91 | 1015.8 |
| 20260905224324 | 79 | 154 | 0.0 | 0.0 | 0.00 | 0.27 | 0.27 | 91 | 1015.6 |
| 20260905223818 | 80 | 161 | 0.0 | 0.0 | 0.00 | 0.27 | 0.27 | 91 | 1015.6 |
| 20260905223316 | 80 | 155 | 0.0 | 0.0 | 0.00 | 0.27 | 0.27 | 91 | 1015.8 |
| 20260905222811 | 80 | 152 | 0.0 | 0.0 | 0.00 | 0.27 | 0.27 | 90 | 1015.7 |
| 20260905222310 | 80 | 150 | 0.0 | 0.0 | 0.00 | 0.27 | 0.27 | 91 | 1015.7 |
| 20260905221806 | 80 | 149 | 0.0 | 0.0 | 0.00 | 0.27 | 0.27 | 91 | 1015.8 |
| 20260905221303 | 80 | 159 | 0.0 | 0.0 | 0.00 | 0.27 | 0.27 | 90 | 1015.9 |
| 20260905220758 | 80 | 161 | 0.0 | 0.0 | 0.00 | 0.27 | 0.27 | 90 | 1016.1 |
| 20260905220254 | 80 | 155 | 0.0 | 0.0 | 0.00 | 0.27 | 0.27 | 90 | 1016.0 |
| 20260905215753 | 80 | 163 | 0.0 | 0.0 | 0.00 | 0.27 | 0.27 | 90 | 1016.1 |
| 20260905215249 | 80 | 161 | 0.0 | 0.0 | 0.00 | 0.27 | 0.27 | 90 | 1015.8 |
| 20260905214745 | 80 | 156 | 0.0 | 0.0 | 0.00 | 0.27 | 0.27 | 90 | 1016.2 |
| 20260905214240 | 80 | 153 | 0.0 | 0.0 | 0.00 | 0.27 | 0.27 | 90 | 1016.0 |
| 20260905213736 | 80 | 155 | 0.0 | 0.0 | 0.00 | 0.27 | 0.27 | 90 | 1016.3 |
| 20260905213232 | 81 | 163 | 0.0 | 0.0 | 0.00 | 0.27 | 0.27 | 90 | 1016.4 |
| 20260905212727 | 80 | 154 | 0.0 | 0.0 | 0.00 | 0.27 | 0.27 | 90 | 1016.4 |
| 20260905212226 | 81 | 158 | 0.0 | 0.0 | 0.00 | 0.27 | 0.27 | 90 | 1016.2 |
| 20260905211725 | 80 | 147 | 0.0 | 0.0 | 0.00 | 0.27 | 0.27 | 90 | 1016.4 |
| 20260905211221 | 80 | 152 | 0.0 | 0.0 | 0.00 | 0.27 | 0.27 | 90 | 1016.6 |
| 20260905210717 | 80 | 159 | 0.0 | 0.0 | 0.00 | 0.27 | 0.27 | 91 | 1016.5 |
| 20260905210212 | 80 | 152 | 0.0 | 0.0 | 0.00 | 0.27 | 0.27 | 91 | 1016.7 |
| 20260905205710 | 80 | 153 | 0.0 | 0.0 | 0.00 | 0.27 | 0.27 | 91 | 1016.4 |
| 20260905205205 | 80 | 157 | 0.0 | 0.0 | 0.00 | 0.27 | 0.27 | 91 | 1016.6 |
| 20260905204705 | 80 | 162 | 0.0 | 0.0 | 0.00 | 0.27 | 0.27 | 91 | 1016.5 |
| 20260905204200 | 80 | 162 | 0.0 | 0.0 | 0.00 | 0.27 | 0.27 | 91 | 1016.5 |
| 20260905203654 | 80 | 160 | 0.0 | 0.0 | 0.00 | 0.27 | 0.27 | 91 | 1016.5 |
| 20260905203150 | 80 | 145 | 0.0 | 0.0 | 0.00 | 0.27 | 0.27 | 91 | 1016.5 |
| 20260905202645 | 80 | 145 | 0.0 | 0.0 | 0.00 | 0.27 | 0.27 | 92 | 1016.7 |
| 20260905202140 | 80 | 145 | 0.0 | 0.0 | 0.00 | 0.27 | 0.27 | 92 | 1016.8 |
| 20260905201636 | 80 | 149 | 0.0 | 0.0 | 0.00 | 0.27 | 0.27 | 92 | 1016.7 |
| 20260905201130 | 80 | 150 | 0.0 | 0.0 | 0.00 | 0.27 | 0.27 | 92 | 1016.9 |
| 20260905200626 | 80 | 152 | 0.0 | 0.0 | 0.00 | 0.27 | 0.27 | 92 | 1017.0 |
| 20260905200120 | 80 | 155 | 0.0 | 0.0 | 0.00 | 0.27 | 0.27 | 92 | 1016.9 |
| 20260905195613 | 80 | 155 | 0.0 | 0.0 | 0.00 | 0.27 | 0.27 | 91 | 1016.8 |
| 20260905195108 | 80 | 163 | 0.0 | 0.0 | 0.00 | 0.27 | 0.27 | 91 | 1016.9 |
| 20260905194603 | 80 | 155 | 0.0 | 0.0 | 0.00 | 0.27 | 0.27 | 90 | 1016.8 |
| 20260905194102 | 80 | 148 | 0.0 | 0.0 | 0.00 | 0.27 | 0.27 | 91 | 1017.0 |
| 20260905193557 | 80 | 150 | 0.0 | 0.0 | 0.00 | 0.27 | 0.27 | 91 | 1017.0 |
| 20260905193052 | 80 | 155 | 0.0 | 0.0 | 0.00 | 0.27 | 0.27 | 90 | 1016.9 |
| 20260905192548 | 80 | 150 | 0.0 | 0.0 | 0.00 | 0.27 | 0.27 | 90 | 1016.8 |
| 20260905192044 | 80 | 153 | 0.0 | 0.0 | 0.00 | 0.27 | 0.27 | 90 | 1017.1 |
| 20260905191542 | 80 | 143 | 0.0 | 0.0 | 0.00 | 0.27 | 0.27 | 90 | 1016.8 |
| 20260905191041 | 80 | 149 | 0.0 | 0.0 | 0.00 | 0.27 | 0.27 | 90 | 1016.9 |
| 20260905190539 | 80 | 149 | 0.0 | 0.0 | 0.07 | 0.27 | 0.27 | 89 | 1017.0 |
| 20260905190034 | 80 | 170 | 0.0 | 1.0 | 0.42 | 0.27 | 0.27 | 89 | 1016.9 |
| 20260905185533 | 81 | 176 | 0.0 | 0.0 | 0.35 | 0.26 | 0.26 | 90 | 1017.0 |
| 20260905185032 | 82 | 168 | 0.0 | 1.0 | 0.05 | 0.20 | 0.20 | 90 | 1017.3 |
| 20260905184527 | 82 | 192 | 2.0 | 2.0 | 0.05 | 0.20 | 0.20 | 90 | 1017.3 |
| 20260905184026 | 82 | 166 | 0.0 | 0.0 | 0.00 | 0.19 | 0.19 | 90 | 1017.0 |
| 20260905183525 | 82 | 174 | 0.0 | 1.0 | 0.00 | 0.19 | 0.19 | 90 | 1017.2 |
| 20260905183021 | 82 | 162 | 0.0 | 0.0 | 0.00 | 0.19 | 0.19 | 91 | 1017.1 |
| 20260905182515 | 81 | 160 | 0.0 | 0.0 | 0.00 | 0.19 | 0.19 | 91 | 1016.8 |
| 20260905182009 | 81 | 161 | 0.0 | 0.0 | 0.00 | 0.19 | 0.19 | 91 | 1016.7 |
| 20260905181504 | 81 | 148 | 0.0 | 0.0 | 0.00 | 0.19 | 0.19 | 92 | 1017.0 |
| 20260905181003 | 82 | 157 | 0.0 | 0.0 | 0.00 | 0.19 | 0.19 | 91 | 1016.6 |
| 20260905180458 | 81 | 153 | 0.0 | 0.0 | 0.00 | 0.19 | 0.19 | 91 | 1016.8 |
| 20260905175953 | 81 | 146 | 0.0 | 0.0 | 0.00 | 0.19 | 0.19 | 91 | 1017.0 |
| 20260905175453 | 81 | 151 | 1.0 | 2.0 | 0.00 | 0.19 | 0.19 | 91 | 1017.2 |
| 20260905174949 | 81 | 161 | 0.0 | 0.0 | 0.00 | 0.19 | 0.19 | 91 | 1017.0 |
| 20260905174443 | 81 | 169 | 0.0 | 0.0 | 0.00 | 0.19 | 0.19 | 91 | 1017.0 |
| 20260905173939 | 80 | 150 | 0.0 | 0.0 | 0.97 | 0.19 | 0.19 | 90 | 1017.0 |
| 20260905173436 | 80 | 158 | 0.0 | 1.0 | 1.02 | 0.18 | 0.18 | 89 | 1017.2 |
| 20260905172931 | 84 | 146 | 5.0 | 6.0 | 0.17 | 0.04 | 0.04 | 84 | 1017.4 |
| 20260905172428 | 88 | 26 | 5.0 | 7.0 | 0.00 | 0.01 | 0.01 | 74 | 1017.2 |
| 20260905171925 | 93 | 235 | 6.0 | 8.0 | 0.00 | 0.01 | 0.01 | 71 | 1017.2 |
| 20260905171421 | 94 | 177 | 0.0 | 1.0 | 0.00 | 0.01 | 0.01 | 69 | 1016.9 |
| 20260905170917 | 95 | 151 | 0.0 | 0.0 | 0.00 | 0.01 | 0.01 | 68 | 1016.9 |
| 20260905170413 | 92 | 176 | 1.0 | 1.0 | 0.00 | 0.01 | 0.01 | 70 | 1017.1 |
| 20260905165912 | 91 | 191 | 0.0 | 1.0 | 0.00 | 0.01 | 0.01 | 72 | 1017.5 |
| 20260905165408 | 91 | 166 | 1.0 | 2.0 | 0.00 | 0.01 | 0.01 | 71 | 1017.4 |
| 20260905164903 | 91 | 179 | 0.0 | 1.0 | 0.00 | 0.01 | 0.01 | 73 | 1017.4 |
| 20260905164357 | 91 | 181 | 0.0 | 0.0 | 0.00 | 0.01 | 0.01 | 71 | 1017.6 |
| 20260905163852 | 91 | 156 | 0.0 | 0.0 | 0.00 | 0.01 | 0.01 | 72 | 1017.8 |
| 20260905163349 | 90 | 234 | 1.0 | 2.0 | 0.00 | 0.01 | 0.01 | 73 | 1017.6 |
| 20260905162845 | 90 | 181 | 1.0 | 1.0 | 0.00 | 0.01 | 0.01 | 72 | 1017.9 |
| 20260905162344 | 89 | 197 | 1.0 | 2.0 | 0.00 | 0.01 | 0.01 | 73 | 1017.9 |
| 20260905161839 | 90 | 265 | 3.0 | 3.0 | 0.00 | 0.01 | 0.01 | 74 | 1018.0 |
| 20260905161338 | 90 | 188 | 3.0 | 3.0 | 0.00 | 0.01 | 0.01 | 72 | 1018.0 |
| 20260905160837 | 90 | 241 | 2.0 | 2.0 | 0.00 | 0.01 | 0.01 | 73 | 1018.1 |
| 20260905160331 | 89 | 181 | 3.0 | 3.0 | 0.00 | 0.01 | 0.01 | 74 | 1018.0 |
| 20260905155825 | 88 | 254 | 3.0 | 3.0 | 0.00 | 0.01 | 0.01 | 75 | 1018.0 |
| 20260905155325 | 88 | 209 | 1.0 | 2.0 | 0.00 | 0.01 | 0.01 | 78 | 1018.4 |
| 20260905154819 | 88 | 165 | 0.0 | 0.0 | 0.00 | 0.01 | 0.01 | 78 | 1018.3 |
| 20260905154315 | 89 | 178 | 1.0 | 1.0 | 0.00 | 0.01 | 0.01 | 77 | 1018.4 |
| 20260905153810 | 89 | 340 | 3.0 | 3.0 | 0.00 | 0.01 | 0.01 | 78 | 1018.3 |
| 20260905153306 | 88 | 164 | 1.0 | 1.0 | 0.00 | 0.01 | 0.01 | 78 | 1018.5 |
| 20260905152800 | 88 | 163 | 1.0 | 1.0 | 0.00 | 0.01 | 0.01 | 78 | 1018.5 |
| 20260905152259 | 88 | 184 | 2.0 | 2.0 | 0.00 | 0.01 | 0.01 | 79 | 1018.5 |
| 20260905151754 | 87 | 172 | 1.0 | 1.0 | 0.00 | 0.01 | 0.01 | 80 | 1018.3 |
| 20260905151250 | 87 | 173 | 1.0 | 2.0 | 0.00 | 0.01 | 0.01 | 81 | 1018.3 |
| 20260905150749 | 86 | 181 | 1.0 | 2.0 | 0.00 | 0.01 | 0.01 | 81 | 1018.5 |
| 20260905150244 | 86 | 246 | 3.0 | 6.0 | 0.00 | 0.01 | 0.01 | 83 | 1018.3 |
| 20260905145741 | 85 | 192 | 4.0 | 6.0 | 0.00 | 0.01 | 0.01 | 84 | 1018.8 |
| 20260905145236 | 85 | 192 | 1.0 | 1.0 | 0.00 | 0.01 | 0.01 | 85 | 1018.6 |
| 20260905144735 | 84 | 170 | 1.0 | 1.0 | 0.07 | 0.01 | 0.01 | 87 | 1018.7 |
| 20260905144231 | 83 | 170 | 1.0 | 1.0 | 0.07 | 0.01 | 0.01 | 87 | 1018.7 |
| 20260905143730 | 83 | 184 | 1.0 | 1.0 | 0.00 | 0.00 | 0.00 | 87 | 1018.8 |
| 20260905143229 | 83 | 171 | 0.0 | 0.0 | 0.00 | 0.00 | 0.00 | 87 | 1018.7 |
| 20260905142727 | 83 | 172 | 0.0 | 0.0 | 0.00 | 0.00 | 0.00 | 87 | 1019.0 |
| 20260905142222 | 83 | 167 | 0.0 | 0.0 | 0.00 | 0.00 | 0.00 | 87 | 1019.1 |
| 20260905141718 | 83 | 166 | 0.0 | 0.0 | 0.00 | 0.00 | 0.00 | 87 | 1019.0 |
| 20260905141214 | 82 | 164 | 0.0 | 0.0 | 0.00 | 0.00 | 0.00 | 88 | 1018.9 |
| 20260905140708 | 82 | 172 | 0.0 | 0.0 | 0.00 | 0.00 | 0.00 | 88 | 1018.8 |
| 20260905140203 | 82 | 167 | 0.0 | 0.0 | 0.00 | 0.00 | 0.00 | 88 | 1018.9 |
| 20260905135657 | 82 | 185 | 0.0 | 1.0 | 0.00 | 0.00 | 0.00 | 88 | 1019.0 |
| 20260905135153 | 82 | 163 | 0.0 | 0.0 | 0.00 | 0.00 | 0.00 | 89 | 1018.8 |
| 20260905134647 | 81 | 166 | 0.0 | 0.0 | 0.00 | 0.00 | 0.00 | 90 | 1018.7 |
| 20260905134146 | 81 | 219 | 1.0 | 1.0 | 0.00 | 0.00 | 0.00 | 91 | 1018.5 |
| 20260905133642 | 80 | 167 | 1.0 | 1.0 | 0.00 | 0.00 | 0.00 | 91 | 1018.6 |
| 20260905133142 | 80 | 167 | 0.0 | 0.0 | 0.00 | 0.00 | 0.00 | 92 | 1018.5 |
| 20260905132641 | 80 | 168 | 0.0 | 0.0 | 0.00 | 0.00 | 0.00 | 93 | 1018.5 |
| 20260905132136 | 80 | 170 | 1.0 | 2.0 | 0.00 | 0.00 | 0.00 | 93 | 1018.4 |
| 20260905131631 | 79 | 162 | 0.0 | 0.0 | 0.00 | 0.00 | 0.00 | 94 | 1018.6 |
| 20260905131126 | 79 | 149 | 0.0 | 0.0 | 0.00 | 0.00 | 0.00 | 94 | 1018.1 |
| 20260905130621 | 79 | 191 | 1.0 | 1.0 | 0.00 | 0.00 | 0.00 | 94 | 1018.2 |
| 20260905130120 | 79 | 171 | 1.0 | 1.0 | 0.00 | 0.00 | 0.00 | 94 | 1018.3 |
| 20260905125615 | 78 | 178 | 1.0 | 1.0 | 0.00 | 0.00 | 0.00 | 95 | 1018.4 |
| 20260905125110 | 78 | 169 | 0.0 | 1.0 | 0.00 | 0.00 | 0.00 | 95 | 1018.3 |
| 20260905124602 | 78 | 165 | 1.0 | 1.0 | 0.00 | 0.00 | 0.00 | 95 | 1018.4 |
| 20260905124057 | 78 | 169 | 0.0 | 1.0 | 0.00 | 0.00 | 0.00 | 95 | 1018.1 |
| 20260905123552 | 78 | 164 | 1.0 | 1.0 | 0.00 | 0.00 | 0.00 | 95 | 1018.2 |
| 20260905123049 | 78 | 175 | 1.0 | 2.0 | 0.00 | 0.00 | 0.00 | 95 | 1018.4 |
| 20260905122549 | 78 | 170 | 0.0 | 1.0 | 0.00 | 0.00 | 0.00 | 95 | 1018.6 |
| 20260905122043 | 77 | 177 | 0.0 | 0.0 | 0.00 | 0.00 | 0.00 | 95 | 1018.2 |
| 20260905121538 | 77 | 176 | 0.0 | 0.0 | 0.00 | 0.00 | 0.00 | 95 | 1018.2 |
| 20260905121033 | 77 | 169 | 0.0 | 0.0 | 0.00 | 0.00 | 0.00 | 95 | 1018.2 |
| 20260905120532 | 77 | 169 | 0.0 | 0.0 | 0.00 | 0.00 | 0.00 | 95 | 1018.2 |
| 20260905120028 | 77 | 165 | 0.0 | 0.0 | 0.00 | 0.00 | 0.00 | 95 | 1018.1 |
| 20260905115526 | 77 | 167 | 0.0 | 0.0 | 0.00 | 0.00 | 0.00 | 95 | 1018.0 |
| 20260905115022 | 77 | 169 | 0.0 | 0.0 | 0.00 | 0.00 | 0.00 | 95 | 1018.1 |
| 20260905114521 | 77 | 164 | 0.0 | 0.0 | 0.00 | 0.00 | 0.00 | 95 | 1017.8 |
| 20260905114020 | 77 | 167 | 0.0 | 0.0 | 0.00 | 0.00 | 0.00 | 95 | 1017.6 |
| 20260905113515 | 77 | 167 | 0.0 | 0.0 | 0.00 | 0.00 | 0.00 | 95 | 1017.6 |
| 20260905113010 | 76 | 168 | 0.0 | 0.0 | 0.00 | 0.00 | 0.00 | 95 | 1017.7 |
| 20260905112506 | 76 | 165 | 0.0 | 0.0 | 0.00 | 0.00 | 0.00 | 95 | 1017.6 |
| 20260905112001 | 76 | 163 | 0.0 | 0.0 | 0.00 | 0.00 | 0.00 | 95 | 1017.7 |
| 20260905111455 | 76 | 163 | 0.0 | 0.0 | 0.00 | 0.00 | 0.00 | 95 | 1017.8 |
| 20260905110950 | 76 | 162 | 0.0 | 0.0 | 0.00 | 0.00 | 0.00 | 95 | 1017.4 |
| 20260905110449 | 76 | 163 | 0.0 | 0.0 | 0.00 | 0.00 | 0.00 | 95 | 1017.7 |
| 20260905105948 | 76 | 159 | 0.0 | 0.0 | 0.00 | 0.00 | 0.00 | 95 | 1017.3 |
| 20260905105443 | 76 | 161 | 0.0 | 0.0 | 0.00 | 0.00 | 0.00 | 95 | 1017.5 |
| 20260905104942 | 76 | 165 | 0.0 | 0.0 | 0.00 | 0.00 | 0.00 | 95 | 1017.3 |
| 20260905104438 | 76 | 166 | 0.0 | 0.0 | 0.00 | 0.00 | 0.00 | 95 | 1017.2 |
| 20260905103933 | 76 | 172 | 0.0 | 0.0 | 0.00 | 0.00 | 0.00 | 95 | 1017.4 |
| 20260905103429 | 76 | 168 | 0.0 | 0.0 | 0.00 | 0.00 | 0.00 | 95 | 1017.4 |
| 20260905102924 | 76 | 163 | 0.0 | 0.0 | 0.00 | 0.00 | 0.00 | 95 | 1017.2 |
| 20260905102421 | 76 | 167 | 0.0 | 0.0 | 0.00 | 0.00 | 0.00 | 95 | 1017.4 |
| 20260905101916 | 76 | 161 | 0.0 | 0.0 | 0.00 | 0.00 | 0.00 | 95 | 1017.4 |
| 20260905101414 | 76 | 160 | 0.0 | 0.0 | 0.00 | 0.00 | 0.00 | 95 | 1017.4 |
| 20260905100909 | 76 | 161 | 0.0 | 0.0 | 0.00 | 0.00 | 0.00 | 95 | 1017.1 |
| 20260905100405 | 76 | 161 | 0.0 | 0.0 | 0.00 | 0.00 | 0.00 | 95 | 1017.3 |
| 20260905095904 | 76 | 161 | 0.0 | 0.0 | 0.00 | 0.00 | 0.00 | 95 | 1017.3 |
| 20260905095358 | 76 | 161 | 0.0 | 0.0 | 0.00 | 0.00 | 0.00 | 95 | 1017.3 |
| 20260905094853 | 76 | 157 | 0.0 | 0.0 | 0.00 | 0.00 | 0.00 | 95 | 1017.1 |
| 20260905094349 | 76 | 169 | 0.0 | 0.0 | 0.00 | 0.00 | 0.00 | 95 | 1017.1 |
| 20260905093847 | 76 | 160 | 0.0 | 0.0 | 0.00 | 0.00 | 0.00 | 95 | 1016.6 |
| 20260905093343 | 76 | 157 | 0.0 | 0.0 | 0.00 | 0.00 | 0.00 | 95 | 1016.8 |
| 20260905092839 | 76 | 157 | 0.0 | 0.0 | 0.00 | 0.00 | 0.00 | 95 | 1017.2 |
| 20260905092339 | 76 | 157 | 0.0 | 0.0 | 0.00 | 0.00 | 0.00 | 95 | 1017.3 |
| 20260905091834 | 76 | 157 | 0.0 | 0.0 | 0.00 | 0.00 | 0.00 | 95 | 1017.0 |
| 20260905091333 | 76 | 157 | 0.0 | 0.0 | 0.00 | 0.00 | 0.00 | 95 | 1017.3 |
| 20260905090832 | 76 | 156 | 0.0 | 0.0 | 0.00 | 0.00 | 0.00 | 95 | 1017.1 |
| 20260905090329 | 76 | 158 | 0.0 | 0.0 | 0.00 | 0.00 | 0.00 | 95 | 1017.3 |
| 20260905085828 | 76 | 156 | 0.0 | 0.0 | 0.00 | 0.00 | 0.00 | 95 | 1017.3 |
| 20260905085322 | 76 | 156 | 0.0 | 0.0 | 0.00 | 0.00 | 0.00 | 95 | 1017.3 |
| 20260905084818 | 76 | 156 | 0.0 | 0.0 | 0.00 | 0.00 | 0.00 | 95 | 1017.2 |
| 20260905084317 | 76 | 156 | 0.0 | 0.0 | 0.00 | 0.00 | 0.00 | 95 | 1017.3 |
| 20260905083812 | 76 | 157 | 0.0 | 0.0 | 0.00 | 0.00 | 0.00 | 95 | 1017.3 |
| 20260905083308 | 76 | 155 | 0.0 | 0.0 | 0.00 | 0.00 | 0.00 | 95 | 1017.3 |
| 20260905082803 | 76 | 155 | 0.0 | 0.0 | 0.00 | 0.00 | 0.00 | 95 | 1017.2 |
| 20260905082259 | 76 | 155 | 0.0 | 0.0 | 0.00 | 0.00 | 0.00 | 95 | 1017.2 |
| 20260905081754 | 76 | 155 | 0.0 | 0.0 | 0.00 | 0.00 | 0.00 | 95 | 1017.5 |
| 20260905081249 | 76 | 155 | 0.0 | 0.0 | 0.00 | 0.00 | 0.00 | 95 | 1017.1 |
| 20260905080748 | 76 | 155 | 0.0 | 0.0 | 0.00 | 0.00 | 0.00 | 95 | 1017.3 |
| 20260905080243 | 76 | 155 | 0.0 | 0.0 | 0.00 | 0.00 | 0.00 | 95 | 1017.2 |
| 20260905075742 | 76 | 154 | 0.0 | 0.0 | 0.00 | 0.00 | 0.00 | 95 | 1017.2 |
| 20260905075241 | 76 | 154 | 0.0 | 0.0 | 0.00 | 0.00 | 0.00 | 95 | 1017.2 |
| 20260905074740 | 76 | 154 | 0.0 | 0.0 | 0.00 | 0.00 | 0.00 | 95 | 1017.2 |
| 20260905074236 | 76 | 154 | 0.0 | 0.0 | 0.00 | 0.00 | 0.00 | 95 | 1017.2 |
| 20260905073732 | 76 | 154 | 0.0 | 0.0 | 0.00 | 0.00 | 0.00 | 95 | 1017.2 |
| 20260905073227 | 76 | 153 | 0.0 | 0.0 | 0.00 | 0.00 | 0.00 | 95 | 1017.2 |
| 20260905072726 | 76 | 157 | 0.0 | 0.0 | 0.00 | 0.00 | 0.00 | 95 | 1017.0 |
| 20260905072222 | 76 | 156 | 0.0 | 0.0 | 0.00 | 0.00 | 0.00 | 95 | 1017.2 |
| 20260905071718 | 76 | 156 | 0.0 | 0.0 | 0.00 | 0.00 | 0.00 | 95 | 1017.3 |
| 20260905071214 | 76 | 156 | 0.0 | 0.0 | 0.00 | 0.00 | 0.00 | 95 | 1017.3 |
| 20260905070709 | 76 | 158 | 0.0 | 0.0 | 0.00 | 0.00 | 0.00 | 95 | 1017.6 |
| 20260905070205 | 76 | 157 | 0.0 | 0.0 | 0.00 | 0.00 | 0.00 | 95 | 1017.5 |
| 20260905065703 | 76 | 157 | 0.0 | 0.0 | 0.00 | 0.00 | 0.00 | 95 | 1017.4 |
| 20260905065158 | 76 | 157 | 0.0 | 0.0 | 0.00 | 0.00 | 0.00 | 95 | 1017.5 |
| 20260905064653 | 76 | 158 | 0.0 | 0.0 | 0.00 | 0.00 | 0.00 | 95 | 1017.3 |
| 20260905064149 | 76 | 155 | 0.0 | 0.0 | 0.00 | 0.00 | 0.00 | 95 | 1017.4 |
| 20260905063647 | 76 | 155 | 0.0 | 0.0 | 0.00 | 0.00 | 0.00 | 95 | 1017.2 |
| 20260905063144 | 76 | 160 | 0.0 | 0.0 | 0.00 | 0.00 | 0.00 | 95 | 1017.6 |
| 20260905062639 | 76 | 176 | 0.0 | 0.0 | 0.00 | 0.00 | 0.00 | 95 | 1017.7 |
| 20260905062138 | 76 | 160 | 0.0 | 0.0 | 0.00 | 0.00 | 0.00 | 95 | 1017.7 |
| 20260905061632 | 76 | 157 | 0.0 | 0.0 | 0.00 | 0.00 | 0.00 | 95 | 1017.7 |
| 20260905061127 | 76 | 160 | 0.0 | 0.0 | 0.00 | 0.00 | 0.00 | 95 | 1017.9 |
| 20260905060622 | 76 | 161 | 0.0 | 0.0 | 0.00 | 0.00 | 0.00 | 95 | 1018.1 |
| 20260905060119 | 76 | 156 | 0.0 | 1.0 | 0.00 | 0.00 | 0.00 | 95 | 1017.9 |
| 20260905055617 | 76 | 160 | 0.0 | 0.0 | 0.00 | 0.00 | 0.00 | 95 | 1017.8 |
| 20260905055112 | 76 | 162 | 0.0 | 0.0 | 0.00 | 0.00 | 0.00 | 95 | 1018.1 |
| 20260905054608 | 76 | 156 | 0.0 | 0.0 | 0.00 | 0.00 | 0.00 | 95 | 1018.1 |
| 20260905054103 | 76 | 158 | 1.0 | 2.0 | 0.00 | 0.00 | 0.00 | 95 | 1018.3 |
| 20260905053603 | 76 | 161 | 0.0 | 0.0 | 0.00 | 0.00 | 0.00 | 96 | 1018.4 |
| 20260905053058 | 76 | 168 | 0.0 | 0.0 | 0.00 | 0.00 | 0.00 | 96 | 1018.6 |
| 20260905052557 | 76 | 167 | 0.0 | 0.0 | 0.00 | 0.00 | 0.00 | 95 | 1018.5 |
| 20260905052052 | 76 | 167 | 0.0 | 0.0 | 0.00 | 0.00 | 0.00 | 96 | 1018.3 |
| 20260905051548 | 76 | 167 | 0.0 | 0.0 | 0.00 | 0.00 | 0.00 | 95 | 1018.4 |
| 20260905051044 | 76 | 166 | 0.0 | 0.0 | 0.00 | 0.00 | 0.00 | 95 | 1018.4 |
| 20260905050540 | 76 | 166 | 0.0 | 0.0 | 0.00 | 0.00 | 0.00 | 96 | 1018.5 |
| 20260905050037 | 76 | 165 | 0.0 | 0.0 | 0.00 | 0.00 | 0.00 | 96 | 1018.7 |
| 20260905045531 | 76 | 165 | 0.0 | 0.0 | 0.00 | 0.00 | 0.00 | 95 | 1018.6 |
| 20260905045026 | 76 | 164 | 0.0 | 0.0 | 0.00 | 0.00 | 0.00 | 95 | 1018.8 |
| 20260905044520 | 76 | 158 | 0.0 | 0.0 | 0.00 | 0.00 | 0.00 | 96 | 1018.6 |
| 20260905044015 | 76 | 161 | 0.0 | 0.0 | 0.00 | 0.00 | 0.00 | 95 | 1018.8 |
| 20260905043514 | 76 | 157 | 0.0 | 0.0 | 0.00 | 0.00 | 0.00 | 95 | 1018.8 |
| 20260905043009 | 76 | 160 | 0.0 | 0.0 | 0.00 | 0.00 | 0.00 | 95 | 1018.6 |
| 20260905042503 | 76 | 160 | 0.0 | 0.0 | 0.00 | 0.00 | 0.00 | 95 | 1018.9 |
| 20260905041958 | 76 | 157 | 0.0 | 0.0 | 0.00 | 0.00 | 0.00 | 95 | 1018.9 |
| 20260905041454 | 76 | 157 | 0.0 | 0.0 | 0.00 | 0.00 | 0.00 | 95 | 1019.1 |
| 20260905040949 | 76 | 159 | 0.0 | 0.0 | 0.00 | 0.00 | 0.00 | 95 | 1019.1 |
| 20260905040448 | 76 | 166 | 0.0 | 0.0 | 0.00 | 0.00 | 0.00 | 95 | 1018.9 |
| 20260905035947 | 76 | 163 | 0.0 | 0.0 | 0.00 | 0.69 | 0.69 | 95 | 1019.0 |
| 20260905035443 | 76 | 163 | 0.0 | 0.0 | 0.00 | 0.69 | 0.69 | 95 | 1019.2 |
| 20260905034940 | 76 | 163 | 0.0 | 0.0 | 0.00 | 0.69 | 0.69 | 95 | 1019.2 |
| 20260905034435 | 76 | 164 | 0.0 | 0.0 | 0.00 | 0.69 | 0.69 | 95 | 1018.8 |
| 20260905033934 | 76 | 164 | 0.0 | 0.0 | 0.00 | 0.69 | 0.69 | 96 | 1019.1 |